[[{"header":{"parameterUnit":"m.s-1","parameterCategory":1,"la1":30.2991,"la2":30.254,"lo1":-89.0895,"lo2":-89.0444,"dy":0.0017,"dx":0.0017,"nx":28,"ny":28,"refTime":"2024-05-28T21:00:00:Z","depth":0,"parameterNumber":2,"parameterNumberName":"U-component_of_WINDS"},"data":[0,0,0,0,0,0,0,0,0,0,0,0,0,0,0,0,0,0,0,0,0,0,0,0,0,0,0,0,0,0,0,0,0,0,0,0,0,0,0,0,0,0,0,0,0,0,0,0,0,0,0,0,0,0,0,0,0,0,-1.8136,-1.8136,0,-1.8106,-1.8106,-1.8105,-1.81,-1.81,-1.81,-1.8101,-1.8067,-1.8066,-1.8065,0,0,0,0,0,0,0,0,0,0,0,0,0,-1.8186,-1.8185,-1.8136,-1.8136,-1.8135,-1.8106,-1.8106,-1.8105,-1.81,-1.81,-1.81,-1.8101,-1.8068,-1.8066,-1.8065,0,0,0,0,0,0,0,0,0,0,0,0,0,-1.8161,-1.8185,-1.8136,-1.8129,-1.8128,-1.8106,-1.8106,-1.8105,-1.81,-1.81,-1.8101,-1.8101,-1.8068,-1.8066,-1.8065,-1.8047,0,0,-1.806,-1.8059,0,0,0,0,0,0,0,0,-1.8163,-1.8159,-1.8131,-1.813,-1.8129,-1.8107,-1.8111,-1.8086,-1.81,-1.811,-1.8101,-1.8101,-1.808,-1.8077,-1.8071,-1.8045,-1.8044,-1.8059,-1.8058,-1.8058,-1.8057,0,0,0,0,0,0,0,-1.8164,-1.8161,-1.8124,-1.813,-1.8129,-1.8127,-1.8124,-1.8106,-1.8093,-1.811,-1.8109,-1.8106,-1.808,-1.8072,-1.807,-1.8043,-1.8059,-1.8058,-1.8057,-1.8056,-1.8002,-1.8001,0,0,0,0,0,0,-1.8168,-1.8162,-1.8125,-1.8123,-1.8147,-1.8126,-1.8122,-1.8114,-1.8094,-1.8091,-1.8105,-1.8106,-1.8075,-1.8072,-1.8069,-1.8047,-1.8058,-1.8056,-1.8055,-1.8002,-1.8002,-1.8001,0,0,0,0,0,0,-1.8169,-1.8164,-1.8126,-1.8143,-1.8138,-1.8124,-1.8115,-1.8113,-1.8106,-1.8091,-1.8088,-1.8101,-1.8075,-1.8071,-1.8053,-1.8045,-1.8055,-1.8054,-1.8003,-1.8002,-1.8001,-1.8002,0,0,0,0,0,0,-1.817,-1.8165,-1.8158,-1.8142,-1.8137,-1.8111,-1.8114,-1.8112,-1.8103,-1.8103,-1.8085,-1.8083,-1.8075,-1.8055,-1.8051,-1.8043,-1.8053,-1.8003,-1.8002,-1.8002,-1.8003,-1.8002,-1.8001,0,0,0,0,0,-1.8172,-1.8159,-1.8158,-1.8154,-1.8128,-1.8111,-1.8107,-1.81,-1.8103,-1.8096,-1.8086,-1.8083,-1.8047,-1.8053,-1.8048,-1.804,-1.8004,-1.8003,-1.8002,-1.8003,-1.8002,-1.8001,0,0,0,0,0,0,-1.8173,-1.8157,-1.8156,-1.8137,-1.8126,-1.811,-1.8101,-1.8098,-1.8085,-1.8085,-1.8076,-1.8072,-1.8054,-1.8045,-1.8052,-1.8022,-1.8025,-1.8023,-1.8028,-1.8027,-1.8026,-1.8028,-1.8051,0,0,0,0,0,-1.8172,-1.816,-1.8146,-1.8131,-1.8125,-1.8114,-1.8106,-1.8101,-1.8088,-1.8083,-1.8072,-1.8059,-1.8045,-1.8035,-1.8021,-1.8002,-1.7998,-1.7994,-1.7993,-1.7992,-1.799,-1.7979,-1.7977,-1.7998,-1.7998,-1.7998,0,0,-1.8168,-1.8157,-1.815,-1.8131,-1.8121,-1.8108,-1.811,-1.8096,-1.8086,-1.8081,-1.8063,-1.8054,-1.8039,-1.802,-1.8011,-1.8012,-1.7984,-1.7991,-1.799,-1.7989,-1.7978,-1.7976,-1.7974,-1.7997,-1.7997,-1.7997,0,0,-1.8154,-1.8145,-1.8132,-1.8123,-1.8109,-1.8101,-1.8098,-1.8083,-1.8078,-1.806,-1.8056,-1.8043,-1.8019,-1.8008,-1.8,-1.7983,-1.798,-1.7978,-1.7973,-1.7962,-1.7961,-1.7959,-1.7953,-1.7951,-1.7977,-1.7977,-1.7977,0,-1.8151,-1.8132,-1.8125,-1.8112,-1.8103,-1.8099,-1.8085,-1.8076,-1.8058,-1.8052,-1.8054,-1.8023,-1.8013,-1.7991,-1.7987,-1.7981,-1.7976,-1.798,-1.7962,-1.796,-1.7959,-1.7953,-1.795,-1.7977,-1.7977,-1.7977,-1.7977,0,-1.8128,-1.8115,-1.8106,-1.809,-1.808,-1.8067,-1.8058,-1.8049,-1.8045,-1.8037,-1.8019,-1.8006,-1.799,-1.7985,-1.798,-1.7962,-1.7964,-1.7964,-1.7967,-1.7957,-1.7951,-1.7949,-1.7977,-1.7977,-1.7977,-1.7977,0,0,-1.8114,-1.8095,-1.8092,-1.8084,-1.8069,-1.8058,-1.8044,-1.8029,-1.8022,-1.8009,-1.7997,-1.7977,-1.7977,-1.7967,-1.7962,-1.7953,-1.794,-1.7954,-1.7953,-1.7952,-1.792,-1.792,-1.7917,-1.7939,-1.7938,-1.7938,-1.7921,0,-1.8098,-1.8074,-1.8068,-1.8048,-1.8036,-1.8032,-1.802,-1.8009,-1.8002,-1.799,-1.7981,-1.7967,-1.7968,-1.7963,-1.7953,-1.7944,-1.7934,-1.7945,-1.7927,-1.7926,-1.793,-1.7914,-1.7914,-1.7899,-1.7919,-1.7919,-1.7918,0,-1.8076,-1.8065,-1.8044,-1.803,-1.8025,-1.8014,-1.8,-1.7989,-1.7976,-1.7972,-1.7961,-1.7957,-1.7942,-1.7946,-1.7925,-1.7933,-1.7925,-1.7919,-1.7918,-1.7916,-1.7921,-1.7911,-1.7894,-1.7892,-1.7915,-1.7915,-1.7915,0,-1.8068,-1.8047,-1.8032,-1.8026,-1.801,-1.8002,-1.7995,-1.7983,-1.7974,-1.7962,-1.7956,-1.7941,-1.7933,-1.7922,-1.7913,-1.7918,-1.7893,-1.7897,-1.7888,-1.7889,-1.7883,-1.7883,-1.7864,-1.7878,-1.7878,-1.7878,-1.7878,0,-1.8051,-1.8038,-1.8028,-1.8018,-1.8004,-1.7997,-1.7982,-1.7975,-1.7964,-1.7952,-1.7948,-1.7937,-1.7927,-1.7914,-1.7908,-1.7891,-1.7887,-1.7883,-1.7881,-1.7883,-1.7884,-1.7878,-1.7878,-1.7878,-1.7878,-1.7878,-1.7878,0,-1.8039,-1.8032,-1.8015,-1.8001,-1.7998,-1.7988,-1.7976,-1.7966,-1.7959,-1.7945,-1.7941,-1.793,-1.7915,-1.7906,-1.7886,-1.7882,-1.7864,-1.7862,-1.7868,-1.7868,-1.786,-1.786,-1.7835,-1.7832,-1.7849,-1.7849,-1.7848,0,-1.8028,-1.8018,-1.8005,-1.7997,-1.799,-1.7978,-1.797,-1.7963,-1.7954,-1.7939,-1.7931,-1.7916,-1.7904,-1.7881,-1.787,-1.7856,-1.7854,-1.7846,-1.7851,-1.7854,-1.7854,-1.7854,-1.7853,-1.7845,-1.7845,-1.7845,-1.7845,0,-1.801,-1.8008,-1.7996,-1.7984,-1.7974,-1.7964,-1.7953,-1.7947,-1.7938,-1.7928,-1.7914,-1.7904,-1.7886,-1.7871,-1.7856,-1.7847,-1.7844,-1.7843,-1.784,-1.7842,-1.7846,-1.7844,-1.7866,-1.7844,-1.7844,-1.7844,-1.7844,-1.7844,-1.7998,-1.799,-1.7979,-1.7966,-1.7958,-1.7949,-1.7939,-1.7931,-1.792,-1.7904,-1.7901,-1.7885,-1.7873,-1.7852,-1.7844,-1.7832,-1.7832,-1.7828,-1.7827,-1.7826,-1.7826,-1.7848,-1.7829,-1.7829,-1.7829,-1.7829,-1.7829,0,-1.798,-1.7973,-1.7962,-1.7948,-1.7938,-1.7938,-1.7926,-1.7918,-1.7905,-1.7894,-1.7882,-1.7866,-1.7852,-1.7841,-1.7826,-1.7818,-1.7816,-1.7814,-1.7815,-1.7813,-1.7826,-1.783,-1.7816,-1.7816,-1.7816,-1.7816,-1.7816,-1.7816,-1.7969,-1.7955,-1.7951,-1.7932,-1.7925,-1.7911,-1.7904,-1.7895,-1.7887,-1.7869,-1.7857,-1.7851,-1.784,-1.7824,-1.7811,-1.7808,-1.7803,-1.7801,-1.7798,-1.7811,-1.7812,-1.7813,-1.7817,-1.78,-1.78,-1.7786,-1.7785,-1.7785]},{"header":{"parameterUnit":"m.s-1","parameterCategory":1,"la1":30.2991,"la2":30.254,"lo1":-89.0895,"lo2":-89.0444,"dy":0.0017,"dx":0.0017,"nx":28,"ny":28,"refTime":"2024-05-28T21:00:00:Z","depth":0,"parameterNumber":3,"parameterNumberName":"V-component_of_WINDS"},"data":[0,0,0,0,0,0,0,0,0,0,0,0,0,0,0,0,0,0,0,0,0,0,0,0,0,0,0,0,0,0,0,0,0,0,0,0,0,0,0,0,0,0,0,0,0,0,0,0,0,0,0,0,0,0,0,0,0,0,0.7477,0.7476,0,0.7418,0.7418,0.7417,0.7443,0.7444,0.7445,0.7447,0.7382,0.738,0.7376,0,0,0,0,0,0,0,0,0,0,0,0,0,0.7607,0.7604,0.7477,0.7476,0.7475,0.7418,0.7418,0.7417,0.7442,0.7444,0.7446,0.7447,0.7383,0.738,0.7376,0,0,0,0,0,0,0,0,0,0,0,0,0,0.7549,0.7603,0.7477,0.7481,0.7481,0.7419,0.7418,0.7417,0.7442,0.7444,0.7446,0.7448,0.7385,0.738,0.7376,0.7304,0,0,0.7362,0.736,0,0,0,0,0,0,0,0,0.7552,0.7544,0.7481,0.7481,0.7481,0.744,0.744,0.7379,0.7441,0.7457,0.7447,0.7449,0.74,0.7394,0.7378,0.7301,0.7298,0.7361,0.7359,0.7357,0.7355,0,0,0,0,0,0,0,0.7556,0.7547,0.7454,0.748,0.748,0.7485,0.7479,0.7428,0.7416,0.7455,0.7457,0.745,0.74,0.7382,0.7377,0.7297,0.7361,0.7357,0.7355,0.7353,0.7159,0.7156,0,0,0,0,0,0,0.7561,0.755,0.7455,0.7452,0.7523,0.7481,0.7474,0.7451,0.7417,0.7414,0.7448,0.7452,0.7389,0.7382,0.7375,0.7288,0.7357,0.7352,0.735,0.7161,0.7158,0.7155,0,0,0,0,0,0,0.7564,0.7552,0.7458,0.7501,0.749,0.7476,0.745,0.7449,0.7431,0.7412,0.741,0.7433,0.7391,0.7381,0.7322,0.7286,0.735,0.7346,0.7164,0.716,0.7157,0.7115,0,0,0,0,0,0,0.7567,0.7553,0.7527,0.7501,0.7487,0.7407,0.7447,0.7446,0.7424,0.7427,0.7397,0.7394,0.7392,0.7328,0.7317,0.7281,0.7342,0.7167,0.7162,0.7158,0.712,0.7111,0.7103,0,0,0,0,0,0.7572,0.7516,0.7525,0.7513,0.7454,0.7405,0.7397,0.7397,0.7421,0.7393,0.7381,0.7395,0.7292,0.7322,0.731,0.7272,0.7169,0.7163,0.7158,0.7123,0.7112,0.7103,0,0,0,0,0,0,0.7536,0.7513,0.7522,0.7457,0.7433,0.7409,0.7375,0.7385,0.7352,0.7357,0.7357,0.735,0.7288,0.7274,0.7308,0.7201,0.7234,0.7226,0.7212,0.7201,0.7193,0.7197,0.7339,0,0,0,0,0,0.7521,0.7485,0.7466,0.741,0.7397,0.7388,0.7366,0.7369,0.7343,0.7332,0.7316,0.7289,0.7251,0.7225,0.7189,0.7118,0.7111,0.7086,0.7078,0.7071,0.7063,0.7024,0.7013,0.7138,0.7138,0.7138,0,0,0.7489,0.7472,0.7448,0.7402,0.7384,0.7344,0.7379,0.7336,0.7306,0.7325,0.7269,0.7255,0.7226,0.716,0.713,0.7146,0.7028,0.7064,0.7059,0.7055,0.7017,0.7006,0.6995,0.7134,0.7135,0.7135,0,0,0.741,0.7394,0.7346,0.7327,0.7299,0.7294,0.7282,0.7257,0.7249,0.7193,0.7206,0.717,0.7105,0.7083,0.7063,0.6977,0.6988,0.6965,0.6921,0.6883,0.6873,0.6864,0.6833,0.6822,0.6958,0.6958,0.6958,0,0.7373,0.7316,0.7319,0.7275,0.7254,0.7271,0.7222,0.7203,0.7164,0.7148,0.7168,0.7086,0.7067,0.6996,0.6976,0.6959,0.6945,0.6968,0.6875,0.6866,0.6858,0.6827,0.6816,0.6955,0.6956,0.6956,0.6956,0,0.7271,0.7231,0.7196,0.7159,0.7134,0.7088,0.7083,0.7057,0.7061,0.7053,0.6995,0.6973,0.6933,0.6917,0.692,0.6846,0.6857,0.6875,0.6909,0.6843,0.6815,0.6803,0.6952,0.6952,0.6953,0.6954,0,0,0.7167,0.7135,0.7121,0.7105,0.7076,0.7045,0.6998,0.6961,0.6938,0.6911,0.6871,0.6816,0.6833,0.681,0.6811,0.6778,0.6711,0.68,0.68,0.6784,0.6627,0.6613,0.66,0.6718,0.6716,0.6715,0.663,0,0.7086,0.7007,0.7008,0.6934,0.6897,0.6913,0.6873,0.685,0.6841,0.6807,0.6798,0.6758,0.6784,0.677,0.6738,0.6726,0.6679,0.6732,0.668,0.6678,0.6686,0.6585,0.657,0.6491,0.6619,0.6617,0.6615,0,0.698,0.6951,0.6873,0.685,0.6835,0.6799,0.6764,0.6732,0.6706,0.6702,0.6678,0.6684,0.6636,0.6672,0.6605,0.6641,0.662,0.6611,0.6608,0.6602,0.6642,0.6576,0.6466,0.6454,0.6598,0.66,0.6601,0,0.6911,0.6852,0.6798,0.6784,0.6756,0.673,0.6717,0.6694,0.6671,0.664,0.6625,0.6589,0.6569,0.654,0.6536,0.6563,0.6469,0.6504,0.6463,0.6463,0.6441,0.6442,0.6325,0.6429,0.643,0.643,0.643,0,0.6819,0.677,0.6767,0.6734,0.668,0.6682,0.6628,0.6617,0.6597,0.656,0.6572,0.6538,0.6535,0.6499,0.6496,0.6441,0.6431,0.6426,0.6425,0.6424,0.6425,0.641,0.6415,0.6427,0.6427,0.6428,0.6429,0,0.6732,0.6728,0.667,0.6649,0.6643,0.6604,0.6585,0.6553,0.6546,0.65,0.6489,0.6478,0.6437,0.643,0.6381,0.6379,0.6313,0.6318,0.6322,0.6322,0.6281,0.6284,0.6149,0.6131,0.6247,0.6246,0.6245,0,0.6673,0.6637,0.6612,0.659,0.6576,0.6539,0.6516,0.6517,0.6493,0.6461,0.6432,0.6393,0.6361,0.6294,0.628,0.6242,0.6247,0.6202,0.6241,0.6241,0.6245,0.6247,0.6243,0.6194,0.6192,0.6191,0.6191,0,0.6569,0.6569,0.6537,0.6504,0.6477,0.645,0.6425,0.6406,0.6403,0.6375,0.6334,0.6309,0.626,0.622,0.6183,0.6168,0.6178,0.6179,0.6167,0.6165,0.6168,0.6165,0.63,0.6181,0.6182,0.6183,0.6184,0.6184,0.6493,0.6462,0.644,0.6403,0.6385,0.6362,0.6331,0.6321,0.6287,0.6248,0.625,0.6205,0.618,0.6131,0.6114,0.6077,0.6092,0.6075,0.607,0.6066,0.6062,0.6175,0.6071,0.6071,0.6071,0.6071,0.6072,0,0.6389,0.6376,0.6343,0.6309,0.628,0.6294,0.6267,0.6242,0.6202,0.6179,0.6148,0.61,0.6061,0.6046,0.6007,0.5981,0.5985,0.5971,0.5972,0.5968,0.6051,0.6065,0.5969,0.5969,0.5969,0.5969,0.5969,0.5969,0.6331,0.6278,0.6276,0.6214,0.6201,0.6158,0.6141,0.6119,0.6101,0.6048,0.6016,0.6007,0.5986,0.5947,0.5912,0.5908,0.5893,0.5877,0.5875,0.5952,0.5963,0.5972,0.5985,0.5874,0.5873,0.5795,0.5794,0.5793]}]]